This is the latest recevied weather packets stored in our database for station/object KN6WGU. If no packets are shown the sender has not sent any weather packets the latest 10 day(s).
| Time | Temp. | Humidity | Pressure | Rain* | Wind** | Luminosity | Snow |
|---|---|---|---|---|---|---|---|
| 1777230989 | 13.33° C | 81% | 1014.3 hPa | 0 mm | - | 635 W/m² | - |
| 1777230686 | 12.78° C | 81% | 1014.1 hPa | 0 mm | - | 668 W/m² | - |
| 1777230381 | 12.78° C | 82% | 1014.1 hPa | 0 mm | - | 648 W/m² | - |
| 1777230078 | 12.22° C | 82% | 1014.1 hPa | 0 mm | - | 627 W/m² | - |
| 1777229775 | 12.78° C | 80% | 1014.1 hPa | 0 mm | - | 529 W/m² | - |
| 1777229471 | 12.78° C | 82% | 1014 hPa | 0 mm | - | 414 W/m² | - |
| 1777229168 | 12.78° C | 82% | 1014 hPa | 0 mm | - | 422 W/m² | - |
| 1777228866 | 12.22° C | 82% | 1014.2 hPa | 0 mm | - | 371 W/m² | - |
| 1777228561 | 12.22° C | 83% | 1014.2 hPa | 0 mm | - | 354 W/m² | - |
| 1777228258 | 11.67° C | 83% | 1014.4 hPa | 0 mm | - | 339 W/m² | - |
| 1777227957 | 12.22° C | 82% | 1014.2 hPa | 0 mm | - | 373 W/m² | - |
| 1777227652 | 12.22° C | 84% | 1014.1 hPa | 0 mm | - | 331 W/m² | - |
| 1777227348 | 11.67° C | 84% | 1014.2 hPa | 0 mm | - | 338 W/m² | - |
| 1777227045 | 11.67° C | 85% | 1014.1 hPa | 0 mm | - | 309 W/m² | - |
| 1777226745 | 11.67° C | 82% | 1014.1 hPa | 0 mm | - | 314 W/m² | - |
| 1777226440 | 11.67° C | 85% | 1014.1 hPa | 0 mm | - | 328 W/m² | - |
| 1777226136 | 11.11° C | 85% | 1014.1 hPa | 0 mm | - | 270 W/m² | - |
| 1777225833 | 11.11° C | 86% | 1014.3 hPa | 0 mm | - | 270 W/m² | - |
| 1777225528 | 11.11° C | 86% | 1014.4 hPa | 0 mm | - | 260 W/m² | - |
| 1777225226 | 10.56° C | 87% | 1014.3 hPa | 0 mm | - | 254 W/m² | - |
| 1777224922 | 10.56° C | 87% | 1014.3 hPa | 0 mm | - | 248 W/m² | - |
* Rain latest hour (hover to see other rain measurements)
** Current wind speed in m/s (hover to see current wind gust speed)